Regional Weather Roundup
Issued by NWS

Home | Current Version | Previous Version | Graphics & Text | Print | Product List | Glossary On
Versions: 1 2 3 4 5 6 7 8 9 10 11 12 13 14 15 16 17 18 19 20 21 22 23 24 25 26 27 28 29 30 31 32 33 34 35 36 37 38 39 40 41 42 43 44 45 46 47 48 49 50
000
ASUS45 KBOU 270507
RWRCO

WEATHER ROUNDUP FOR COLORADO
NATIONAL WEATHER SERVICE DENVER/BOULDER CO
1000 PM MST WED NOV 26 2014

NOTE: "FAIR" INDICATES FEW OR NO CLOUDS BELOW 12000 FEET WITH NO
SIGNIFICANT WEATHER AND/OR OBSTRUCTIONS TO VISIBILITY.

COZ001>005-013-030-031-270600-
...NORTHWEST COLORADO...

CITY           SKY/WX    TMP DP  RH WIND       PRES   REMARKS
CRAIG          CLEAR     31  25  78 W3        30.41R
HAYDEN         CLEAR     34  25  69 CALM      30.41R
MEEKER         PTCLDY    30  24  78 VRB3      30.45R
MOUNT WERNER   NOT AVBL
STEAMBOAT SPGS CLEAR     34  30  87 E7        30.41R WCI  27
WALDEN         PTCLDY    32  23  69 SE5       30.36R WCI  27
$$

COZ006>008-011-270600-
...WEST CENTRAL VALLEYS...

CITY           SKY/WX    TMP DP  RH WIND       PRES   REMARKS
GRAND JUNCTION CLEAR     33  23  66 E3        30.43R
MONTROSE       CLEAR     28  22  78 SE6       30.47R WCI  22
EAGLE          PTCLDY    28  27  93 E7        30.48R WCI  21
RIFLE          PTCLDY    27  22  81 CALM      30.47R
DELTA          CLEAR     35  25  67 NE3       30.47R
NUCLA          CLEAR     36  27  69 E9        30.50R
$$

COZ017>023-064>068-270600-
...SOUTHWEST COLORADO...

CITY           SKY/WX    TMP DP  RH WIND       PRES   REMARKS
DURANGO        PTCLDY    29  20  69 NE6       30.44R WCI  23
CORTEZ         CLEAR     30  21  69 E10       30.46R WCI  21
PAGOSA SPRINGS PTCLDY    27  19  71 CALM      30.47R
TELLURIDE      NOT AVBL
WOLF CREEK PAS CLEAR     28   9  43 MISG      30.56R
$$

COZ009-010-012-014-032>034-037-058>063-270600-
...CENTRAL COLORADO...

CITY           SKY/WX    TMP DP  RH WIND       PRES   REMARKS
ASPEN          CLEAR     23  18  81 S6        30.47R WCI  16
BUENA VISTA    CLEAR     40  20  45 N14G26    30.37R
COPPER MTN     PTCLDY    27  21  80 W31G39    30.48S WCI  10
BERTHOUD PASS  NOT AVBL
COTTONWOOD PAS CLEAR     39   7  26 W16G28    30.40R
GUNNISON       PTCLDY    25  16  68 N5        30.49R WCI  19
KREMMLING      PTCLDY    34  23  64 NW6       30.43R WCI  29
LEADVILLE      CLEAR     30  17  58 N8G20     30.46R WCI  22
MONARCH PASS     N/A     21  19  93 MISG      30.56S
SALIDA         CLEAR     37  21  52 W6        30.44R
SUNLIGHT       CLEAR    N/A N/A N/A SW3       30.53R
WILKERSON PASS MOCLDY    28  14  54 NW13G23   30.42S WCI  18
$$

COZ069>075-270600-
...SAN LUIS VALLEY/SANGRE DE CRISTO MOUNTAINS...

CITY           SKY/WX    TMP DP  RH WIND       PRES   REMARKS
ALAMOSA        MOCLDY    21  16  81 S5        30.44R WCI  15
LA VETA PASS   NOT AVBL
SAGUACHE       PTCLDY    34  25  69 NW9       30.45R WCI  26
$$

COZ035-036-038>040-270600-
...NORTHERN COLORADO FRONT RANGE...

CITY           SKY/WX    TMP DP  RH WIND       PRES   REMARKS
DENVER INTL AP PTCLDY    26  22  84 S3        30.24S
DMNS CITY PARK   N/A     26  22  85 NE2       30.26R
AURORA         PTCLDY    26  23  87 CALM      30.25R
FRONT RANGE AP PTCLDY    27  23  86 S10       30.24F WCI  17
ERIE MUNI ARPT PTCLDY    22  21  96 CALM      30.26S
BOULDER MUN AP PTCLDY    27  23  86 N3        30.26S
CENTENNIAL     PTCLDY    33  24  69 CALM      30.24R
BROOMFIELD     PTCLDY    27  25  93 CALM      30.25R
FORT COLLINS   CLEAR     25  19  80 N3        30.28R
LONGMONT       CLEAR     25  22  89 NE5       30.28S WCI  20
$$

COZ041-046-047-076>085-087-088-270600-
...PIKES PEAK/PALMER DIVIDE AND SOUTHERN FOOTHILLS...

CITY           SKY/WX    TMP DP  RH WIND       PRES   REMARKS
COLO. SPRINGS  PTCLDY    27  22  81 E5        30.33R WCI  22
A. F. ACADEMY  PTCLDY    22  19  89 N6        30.31R WCI  14
ELLICOTT       NOT AVBL
FALCON         NOT AVBL
FORT CARSON    CLEAR     25  22  87 S5        30.31R WCI  19
LIMON          CLEAR     27  20  75 SE8       30.30R WCI  19
MONUMENT HILL  CLEAR     34  21  60 SW9       30.27R WCI  26
TRINIDAD       CLEAR     29  25  85 VRB5      30.31R WCI  24
$$

COZ042>045-048>051-090-091-270600-
...NORTHEAST COLORADO...

CITY           SKY/WX    TMP DP  RH WIND       PRES   REMARKS
GREELEY ARPT   CLEAR     21  16  79 N5        30.28S WCI  15
AKRON          CLEAR     22  21  96 SE10      30.28R WCI  11
BURLINGTON     PTCLDY    20  16  84 SE6       30.33R WCI  12
WRAY           MOCLDY    29  26  88 SE3       30.33S
STERLING       CLEAR     23  21  93 W3        30.30R
HOLYOKE        PTCLDY    28  25  86 S7        30.32S WCI  21
FORT MORGAN    CLEAR     22  20  93 NE7       30.28R WCI  14
$$

COZ086-089-092>099-270600-
...SOUTHEAST COLORADO...

CITY           SKY/WX    TMP DP  RH WIND       PRES   REMARKS
PUEBLO         PTCLDY    26  21  81 N6        30.33S WCI  19
LA JUNTA       CLEAR     26  20  77 NE6       30.32R WCI  19
LAMAR          CLEAR     24  18  77 CALM      30.35R
SPRINGFIELD      N/A     24  19  81 S9        30.34S WCI  14
$$



USA.gov is the U.S. government's official web portal to all federal, state and local government web resources and services.